Flag for U.S.A. Weather past 2 weeks in Chico, California, U.S.A.

Now
54 °F

Clear.


Feels Like: 54 °F
Forecast: 52 / 73 °F
Wind: No wind

Location: Chico Municipal

Current Time: Oct 21, 2014 at 11:53:46 PM

Latest Report: Oct 21, 2014 at 11:35 PM


Visibility: 10 mi

Pressure: 30.04 "Hg

Humidity: 63%

Dew point: 41 °F

Location of ChicoLocation

Historic Weather in Chico — Graph

°F

Chico temperature yesterday

Maximum temperature yesterday: 68 °F (at 12:15 AM)
Minimum temperature yesterday: 55 °F (at 11:35 PM)
Average temperature yesterday: 63 °F

Past Weeks' High & Low Weather Summary

 TemperatureHumidityPressure
High91 °F (Oct 8, 2:47 PM)94% (Oct 15, 4:55 AM)30.13 "Hg (Oct 15, 4:55 AM)
Low46 °F (Oct 21, 6:55 AM)9% (Oct 12, 4:51 PM)29.77 "Hg (Oct 14, 1:47 PM)
Average66 °F48%29.92 "Hg
* Reported Oct 6 10:15 PM — Oct 21 10:35 PM, Chico, Weather by CustomWeather, © 2014

Note: Actual official high and low records may vary slightly from our data, if they occured in-between our weather recording intervals... More about our weather records

Advertising

Chico weather history for previous 24 hours

 ConditionsComfort  
Time TempWeatherWind HumidityBarometerVisibility
10:35 PM
Oct 21
55 °FClear.No wind59%30.03 "Hg10 mi
10:15 PM55 °FClear.No wind55%30.03 "Hg10 mi
9:55 PM55 °FClear.No wind59%30.03 "Hg10 mi
9:15 PM57 °FClear.No wind55%30.01 "Hg10 mi
8:55 PM57 °FClear.7 mph55%30.01 "Hg10 mi
8:35 PM59 °FClear.3 mph51%30.01 "Hg10 mi
8:15 PM57 °FClear.7 mph55%30.02 "Hg10 mi
7:55 PM59 °FClear.7 mph51%30.01 "Hg10 mi
7:35 PM59 °FClear.6 mph51%30.01 "Hg10 mi
7:15 PM59 °FSunny.7 mph51%30.00 "Hg10 mi
6:55 PM63 °FSunny.8 mph45%30.00 "Hg10 mi
5:55 PM66 °FPartly sunny.12 mph35%30.00 "Hg80 mi
4:59 PM68 °FPartly sunny.6 mph33%30.01 "Hg80 mi
3:47 PM70 °FPartly sunny.14 mph33%30.02 "Hg80 mi
2:50 PM68 °FPartly sunny.9 mph33%30.03 "Hg80 mi
1:47 PM68 °FPartly sunny.12 mph35%30.05 "Hg80 mi
12:56 PM68 °FPartly sunny.9 mph35%30.09 "Hg80 mi
11:55 AMN/ABroken clouds.14 mphN/AN/A80 mi
10:55 AM63 °FScattered clouds.9 mph49%30.11 "Hg80 mi
9:47 AM55 °FScattered clouds.7 mph67%30.12 "Hg80 mi
8:55 AM54 °FScattered clouds.7 mph72%30.13 "Hg40 mi
7:50 AM46 °FPartly cloudy.6 mph87%30.12 "Hg40 mi
6:55 AM46 °FPassing clouds.7 mph87%30.11 "Hg10 mi
6:35 AM48 °FMostly cloudy.5 mph87%30.11 "Hg10 mi
6:15 AM50 °FPartly cloudy.No wind82%30.11 "Hg10 mi
5:55 AM52 °FPassing clouds.3 mph77%30.10 "Hg10 mi
5:35 AM52 °FPassing clouds.7 mph77%30.10 "Hg10 mi
5:15 AM54 °FPassing clouds.6 mph72%30.09 "Hg10 mi
4:55 AM52 °FPassing clouds.5 mph77%30.10 "Hg10 mi
4:35 AM54 °FPassing clouds.5 mph72%30.08 "Hg10 mi
3:55 AM54 °FPassing clouds.3 mph72%30.09 "Hg10 mi
3:35 AM54 °FClear.3 mph72%30.08 "Hg10 mi
3:15 AM54 °FClear.3 mph77%30.08 "Hg10 mi
2:55 AM54 °FClear.6 mph77%30.08 "Hg10 mi
2:35 AM54 °FClear.3 mph77%30.08 "Hg10 mi
2:15 AM54 °FClear.3 mph77%30.07 "Hg10 mi
1:55 AM55 °FClear.5 mph72%30.05 "Hg10 mi
1:35 AM55 °FClear.3 mph67%30.05 "Hg10 mi
1:15 AM55 °FClear.3 mph67%30.04 "Hg10 mi
12:55 AM55 °FClear.5 mph67%30.03 "Hg10 mi
12:35 AM54 °FClear.5 mph72%30.03 "Hg10 mi
12:15 AM54 °FClear.5 mph72%30.03 "Hg10 mi
11:55 PM
Oct 20
55 °FClear.3 mph72%30.02 "Hg10 mi
11:35 PM55 °FClear.3 mph67%30.02 "Hg10 mi
11:15 PM57 °FClear.No wind63%30.01 "Hg10 mi
Weather by CustomWeather, © 2014

See weather overviewHow to use our weather pages